ZHONGXING-10R

Last updated on Sun Oct 26 2025 00:03:00 GMT+0000 (Coordinated Universal Time)

1 63075U 25036A 25297.35547064 -.00000340 00000+0 00000+0 0 9992 2 63075 0.0626 256.7375 0004777 295.3883 79.4056 1.00271216 2581
UTC large
Height (km)
Speed (km/s)
/
Latitude / Longitude
Inclination (degrees)
Orbital Period (minutes)
Azimuth
Elevation
Range (km)
Doppler Factor

Next 0 passes for location: London (51.5072 / 0.1276)

Sorry there are no passes over London.